This is the latest recevied weather packets stored in our database for station/object N0FDH. If no packets are shown the sender has not sent any weather packets the latest 1 day(s).
| Time | Temp. | Humidity | Pressure | Rain* | Wind** | Luminosity | Snow |
|---|---|---|---|---|---|---|---|
| 1778044999 | 2.22° C | 62% | 1012.8 hPa | 0 mm | 1.34 m/s, 347° | 0 W/m² | - |
| 1778044697 | 2.22° C | 61% | 1012.6 hPa | 0 mm | 0.89 m/s, 293° | 0 W/m² | - |
| 1778044392 | 2.22° C | 63% | 1012.5 hPa | 0 mm | 0.89 m/s, 325° | 0 W/m² | - |
| 1778044090 | 2.22° C | 62% | 1012.6 hPa | 0 mm | 1.34 m/s, 314° | 0 W/m² | - |
| 1778043788 | 2.22° C | 61% | 1012.6 hPa | 0 mm | 1.34 m/s, 329° | 0 W/m² | - |
| 1778043484 | 2.22° C | 62% | 1012.5 hPa | 0 mm | 0.89 m/s, 332° | 0 W/m² | - |
| 1778043181 | 2.22° C | 58% | 1012.4 hPa | 0 mm | 1.79 m/s, 334° | 0 W/m² | - |
| 1778042878 | 2.78° C | 59% | 1012.4 hPa | 0 mm | 0.89 m/s, 350° | 0 W/m² | - |
| 1778042575 | 2.78° C | 61% | 1012.4 hPa | 0 mm | 1.79 m/s, 1° | 0 W/m² | - |
| 1778042273 | 2.78° C | 57% | 1012.5 hPa | 0 mm | 1.34 m/s, 329° | 0 W/m² | - |
| 1778041970 | 2.78° C | 56% | 1012.5 hPa | 0 mm | 1.79 m/s, 331° | 0 W/m² | - |
| 1778041669 | 2.78° C | 55% | 1012.4 hPa | 0 mm | 2.68 m/s, 349° | 0 W/m² | - |
| 1778041367 | 3.33° C | 56% | 1012.5 hPa | 0 mm | 2.24 m/s, 338° | 0 W/m² | - |
| 1778041065 | 3.33° C | 55% | 1012.4 hPa | 0 mm | 3.58 m/s, 316° | 0 W/m² | - |
| 1778040762 | 3.33° C | 56% | 1012.4 hPa | 0 mm | 3.58 m/s, 323° | 0 W/m² | - |
| 1778040459 | 3.89° C | 60% | 1012.2 hPa | 0 mm | 1.34 m/s, 328° | 0 W/m² | - |
| 1778040156 | 3.89° C | 58% | 1012.2 hPa | 0 mm | 0.89 m/s, 330° | 0 W/m² | - |
| 1778039852 | 3.89° C | 59% | 1012.1 hPa | 0 mm | 1.79 m/s, 316° | 0 W/m² | - |
| 1778039550 | 3.89° C | 58% | 1012.3 hPa | 0 mm | 0.89 m/s, 336° | 0 W/m² | - |
| 1778039246 | 3.89° C | 57% | 1012.1 hPa | 0 mm | 1.34 m/s, 321° | 0 W/m² | - |
| 1778038944 | 3.89° C | 58% | 1012.2 hPa | 0 mm | 1.79 m/s, 327° | 0 W/m² | - |
| 1778038641 | 3.89° C | 57% | 1012.1 hPa | 0 mm | 1.34 m/s, 28° | 0 W/m² | - |
| 1778038338 | 3.89° C | 57% | 1012.2 hPa | 0 mm | 1.34 m/s, 324° | 0 W/m² | - |
| 1778038035 | 3.89° C | 60% | 1012.2 hPa | 0 mm | 1.79 m/s, 324° | 0 W/m² | - |
| 1778037732 | 3.89° C | 58% | 1012.2 hPa | 0 mm | 2.24 m/s, 309° | 0 W/m² | - |
* Rain latest hour (hover to see other rain measurements)
** Current wind speed in m/s (hover to see current wind gust speed)